| time (UTC) | temp F | wind direction | speed MPH | gust MPH | rain 1hr in | rain 24hr in | rain mn in | humidity % | barometer mb |
| 20260902084512 | 56 | 269 | 2.0 | 7.0 | 0.00 | 0.00 | 0.00 | 87 | 1012.6 |
| 20260902083015 | 57 | 70 | 0.0 | 3.0 | 0.00 | 0.00 | 0.00 | 85 | 1012.7 |
| 20260902081510 | 57 | 118 | 1.0 | 4.0 | 0.00 | 0.00 | 0.00 | 87 | 1012.5 |
| 20260902080008 | 56 | 286 | 0.0 | 6.0 | 0.00 | 0.00 | 0.00 | 86 | 1012.6 |
| 20260902074507 | 56 | 177 | 0.0 | 2.0 | 0.00 | 0.00 | 0.00 | 85 | 1012.7 |
| 20260902073041 | 57 | 272 | 2.0 | 3.0 | 0.00 | 0.00 | 0.00 | 83 | 1012.6 |
| 20260902071532 | 57 | 230 | 1.0 | 4.0 | 0.00 | 0.00 | 0.00 | 82 | 1012.6 |
| 20260902070016 | 58 | 213 | 1.0 | 7.0 | 0.00 | 0.00 | 0.00 | 82 | 1012.6 |
| 20260902064533 | 59 | 160 | 0.0 | 3.0 | 0.00 | 0.00 | 0.00 | 80 | 1012.5 |
| 20260902063034 | 59 | 245 | 1.0 | 6.0 | 0.00 | 0.00 | 0.00 | 80 | 1012.5 |
| 20260902060034 | 59 | 209 | 3.0 | 6.0 | 0.00 | 0.00 | 0.00 | 81 | 1012.4 |
| 20260902054542 | 59 | 232 | 3.0 | 9.0 | 0.00 | 0.00 | 0.00 | 82 | 1012.5 |
| 20260902053027 | 59 | 216 | 6.0 | 8.0 | 0.00 | 0.00 | 0.00 | 82 | 1012.7 |
| 20260902051528 | 60 | 225 | 5.0 | 10.0 | 0.00 | 0.00 | 0.00 | 82 | 1012.8 |
| 20260902050027 | 59 | 126 | 3.0 | 8.0 | 0.00 | 0.00 | 0.00 | 82 | 1013.1 |
| 20260902044526 | 59 | 140 | 2.0 | 4.0 | 0.00 | 0.00 | 0.00 | 81 | 1012.9 |
| 20260902043025 | 60 | 211 | 4.0 | 6.0 | 0.00 | 0.00 | 0.00 | 81 | 1013.0 |
| 20260902041525 | 60 | 216 | 5.0 | 8.0 | 0.00 | 0.00 | 0.00 | 80 | 1013.0 |
| 20260902040024 | 61 | 188 | 4.0 | 7.0 | 0.00 | 0.00 | 0.00 | 79 | 1012.9 |
| 20260902034523 | 61 | 177 | 4.0 | 8.0 | 0.00 | 0.00 | 0.00 | 79 | 1012.8 |
| 20260902033021 | 61 | 159 | 5.0 | 9.0 | 0.00 | 0.00 | 0.00 | 78 | 1012.6 |
| 20260902031521 | 62 | 188 | 3.0 | 10.0 | 0.00 | 0.00 | 0.00 | 77 | 1012.5 |
| 20260902030021 | 62 | 191 | 4.0 | 8.0 | 0.00 | 0.00 | 0.00 | 76 | 1012.5 |
| 20260902024520 | 62 | 186 | 3.0 | 5.0 | 0.00 | 0.00 | 0.00 | 74 | 1012.3 |
| 20260902023019 | 62 | 210 | 3.0 | 6.0 | 0.00 | 0.00 | 0.00 | 74 | 1012.3 |
| 20260902021520 | 63 | 281 | 5.0 | 11.0 | 0.00 | 0.00 | 0.00 | 73 | 1012.2 |
| 20260902020019 | 63 | 274 | 10.0 | 15.0 | 0.00 | 0.00 | 0.00 | 71 | 1012.1 |
| 20260902014529 | 64 | 262 | 7.0 | 12.0 | 0.00 | 0.00 | 0.00 | 67 | 1011.9 |
| 20260902013018 | 65 | 242 | 8.0 | 15.0 | 0.00 | 0.00 | 0.00 | 65 | 1011.9 |
| 20260902011517 | 64 | 261 | 5.0 | 13.0 | 0.00 | 0.00 | 0.00 | 65 | 1011.9 |
| 20260902010025 | 64 | 288 | 8.0 | 13.0 | 0.00 | 0.00 | 0.00 | 64 | 1011.8 |
| 20260902004522 | 64 | 263 | 8.0 | 18.0 | 0.00 | 0.00 | 0.00 | 64 | 1011.7 |
| 20260902003016 | 64 | 247 | 11.0 | 20.0 | 0.00 | 0.00 | 0.00 | 64 | 1011.7 |
| 20260902001516 | 65 | 252 | 9.0 | 16.0 | 0.00 | 0.00 | 0.00 | 64 | 1011.7 |
| 20260902000024 | 65 | 243 | 12.0 | 17.0 | 0.00 | 0.00 | 0.00 | 63 | 1011.6 |
| 20260901234515 | 66 | 246 | 12.0 | 18.0 | 0.00 | 0.00 | 0.00 | 60 | 1011.7 |
| 20260901233014 | 67 | 265 | 11.0 | 20.0 | 0.00 | 0.00 | 0.00 | 59 | 1011.6 |
| 20260901231515 | 68 | 181 | 12.0 | 21.0 | 0.00 | 0.00 | 0.00 | 58 | 1011.6 |
| 20260901230032 | 69 | 233 | 9.0 | 23.0 | 0.00 | 0.00 | 0.00 | 57 | 1011.7 |
| 20260901224517 | 69 | 285 | 12.0 | 20.0 | 0.00 | 0.00 | 0.00 | 54 | 1011.8 |
| 20260901223013 | 70 | 278 | 11.0 | 17.0 | 0.00 | 0.00 | 0.00 | 50 | 1011.6 |
| 20260901221514 | 71 | 259 | 9.0 | 17.0 | 0.00 | 0.00 | 0.00 | 50 | 1011.7 |
| 20260901220011 | 70 | 272 | 8.0 | 17.0 | 0.00 | 0.00 | 0.00 | 51 | 1011.8 |
| 20260901214511 | 70 | 246 | 11.0 | 19.0 | 0.00 | 0.00 | 0.00 | 52 | 1011.9 |
| 20260901213032 | 71 | 248 | 6.0 | 14.0 | 0.00 | 0.00 | 0.00 | 49 | 1011.9 |
| 20260901211508 | 71 | 285 | 9.0 | 17.0 | 0.00 | 0.00 | 0.00 | 50 | 1011.8 |
| 20260901210016 | 71 | 324 | 5.0 | 14.0 | 0.00 | 0.00 | 0.00 | 48 | 1011.8 |
| 20260901204508 | 70 | 131 | 1.0 | 13.0 | 0.00 | 0.00 | 0.00 | 50 | 1011.7 |
| 20260901203008 | 70 | 275 | 4.0 | 13.0 | 0.00 | 0.00 | 0.00 | 50 | 1011.9 |
| 20260901201505 | 71 | 217 | 5.0 | 11.0 | 0.00 | 0.00 | 0.00 | 49 | 1012.1 |
| 20260901200003 | 71 | 313 | 4.0 | 10.0 | 0.00 | 0.00 | 0.00 | 50 | 1012.4 |
| 20260901194600 | 69 | 135 | 5.0 | 12.0 | 0.00 | 0.00 | 0.00 | 52 | 1012.3 |
| 20260901193101 | 68 | 240 | 7.0 | 11.0 | 0.00 | 0.00 | 0.00 | 54 | 1012.5 |
| 20260901191600 | 67 | 267 | 8.0 | 12.0 | 0.00 | 0.00 | 0.00 | 57 | 1012.7 |
| 20260901190054 | 68 | 223 | 5.0 | 13.0 | 0.00 | 0.00 | 0.00 | 56 | 1012.6 |
| 20260901184552 | 68 | 184 | 9.0 | 15.0 | 0.00 | 0.00 | 0.00 | 55 | 1012.5 |
| 20260901183051 | 67 | 281 | 6.0 | 10.0 | 0.00 | 0.00 | 0.00 | 56 | 1012.6 |
| 20260901181545 | 67 | 272 | 6.0 | 9.0 | 0.00 | 0.00 | 0.00 | 59 | 1012.6 |
| 20260901180042 | 65 | 251 | 8.0 | 10.0 | 0.00 | 0.00 | 0.00 | 60 | 1012.6 |
| 20260901174539 | 64 | 251 | 6.0 | 10.0 | 0.00 | 0.00 | 0.00 | 65 | 1012.6 |
| 20260901173036 | 64 | 298 | 1.0 | 4.0 | 0.00 | 0.00 | 0.00 | 66 | 1012.4 |
| 20260901171533 | 64 | 292 | 4.0 | 8.0 | 0.00 | 0.00 | 0.00 | 68 | 1012.4 |
| 20260901170033 | 64 | 265 | 1.0 | 9.0 | 0.00 | 0.00 | 0.00 | 67 | 1012.2 |
| 20260901164529 | 63 | 246 | 0.0 | 3.0 | 0.00 | 0.00 | 0.00 | 69 | 1012.1 |
| 20260901163026 | 63 | 273 | 4.0 | 7.0 | 0.00 | 0.00 | 0.00 | 69 | 1012.1 |
| 20260901161528 | 62 | 201 | 0.0 | 5.0 | 0.00 | 0.00 | 0.00 | 70 | 1012.1 |
| 20260901160023 | 63 | 130 | 2.0 | 4.0 | 0.00 | 0.00 | 0.00 | 68 | 1012.1 |
| 20260901154519 | 62 | 149 | 1.0 | 4.0 | 0.00 | 0.00 | 0.00 | 69 | 1012.0 |
| 20260901153019 | 61 | 151 | 0.0 | 3.0 | 0.00 | 0.00 | 0.00 | 71 | 1011.9 |
| 20260901151510 | 60 | 126 | 1.0 | 4.0 | 0.00 | 0.00 | 0.00 | 75 | 1011.7 |
| 20260901150006 | 59 | 147 | 2.0 | 6.0 | 0.00 | 0.00 | 0.00 | 77 | 1011.8 |
| 20260901144505 | 58 | 169 | 3.0 | 4.0 | 0.00 | 0.00 | 0.00 | 78 | 1011.6 |
| 20260901143101 | 58 | 190 | 3.0 | 5.0 | 0.00 | 0.00 | 0.00 | 78 | 1011.4 |
| 20260901141601 | 58 | 207 | 2.0 | 5.0 | 0.00 | 0.00 | 0.00 | 78 | 1011.2 |
| 20260901140055 | 58 | 208 | 3.0 | 6.0 | 0.00 | 0.00 | 0.00 | 78 | 1011.0 |
| 20260901134554 | 58 | 212 | 4.0 | 5.0 | 0.00 | 0.00 | 0.00 | 78 | 1010.9 |
| 20260901133051 | 58 | 221 | 3.0 | 6.0 | 0.00 | 0.00 | 0.00 | 79 | 1010.7 |
| 20260901131554 | 58 | 217 | 2.0 | 6.0 | 0.00 | 0.00 | 0.00 | 80 | 1010.7 |
| 20260901130050 | 58 | 222 | 4.0 | 7.0 | 0.00 | 0.00 | 0.00 | 80 | 1010.6 |
| 20260901124551 | 58 | 184 | 2.0 | 6.0 | 0.00 | 0.00 | 0.00 | 79 | 1010.5 |
| 20260901123050 | 58 | 209 | 3.0 | 4.0 | 0.00 | 0.00 | 0.00 | 79 | 1010.5 |
| 20260901121550 | 58 | 188 | 2.0 | 6.0 | 0.00 | 0.00 | 0.00 | 78 | 1010.4 |
| 20260901120051 | 58 | 190 | 2.0 | 6.0 | 0.00 | 0.00 | 0.00 | 79 | 1010.4 |
| 20260901114548 | 58 | 194 | 2.0 | 4.0 | 0.00 | 0.00 | 0.00 | 79 | 1010.4 |
| 20260901113048 | 58 | 178 | 0.0 | 1.0 | 0.00 | 0.00 | 0.00 | 79 | 1010.5 |
| 20260901111551 | 59 | 176 | 0.0 | 5.0 | 0.00 | 0.00 | 0.00 | 77 | 1010.6 |
| 20260901110046 | 59 | 174 | 2.0 | 4.0 | 0.00 | 0.00 | 0.00 | 77 | 1010.7 |
| 20260901104545 | 59 | 205 | 1.0 | 4.0 | 0.00 | 0.00 | 0.00 | 77 | 1010.8 |
| 20260901103049 | 59 | 167 | 3.0 | 5.0 | 0.00 | 0.00 | 0.00 | 77 | 1010.6 |
| 20260901101541 | 59 | 234 | 1.0 | 7.0 | 0.00 | 0.00 | 0.00 | 76 | 1010.5 |
| 20260901100040 | 59 | 219 | 0.0 | 5.0 | 0.00 | 0.00 | 0.00 | 78 | 1010.4 |
| 20260901094539 | 58 | 294 | 2.0 | 4.0 | 0.00 | 0.00 | 0.00 | 81 | 1010.4 |
| 20260901093036 | 58 | 267 | 1.0 | 3.0 | 0.00 | 0.00 | 0.00 | 81 | 1010.3 |
| 20260901091533 | 57 | 288 | 0.0 | 4.0 | 0.00 | 0.00 | 0.00 | 83 | 1010.4 |
| 20260901090031 | 57 | 190 | 2.0 | 4.0 | 0.00 | 0.00 | 0.00 | 85 | 1010.5 |